www.pogodaiklimat.ru

Погода и климат >> Архив погоды >> Корея >> Донгхэ


ПОГОДА в Донгхэ

  • Прогноз погоды в Донгхэ
  • Монитор погоды в Донгхэ

АРХИВ ПОГОДЫ в Донгхэ

Время (UTC), дата Ветер
(напр.,м/с)
 
Видим.   Явления Облачность Т
(С)
Тd
(С)
f
(%)
Тe
(С)
Тes
(С)
Комфортность P
(гПа)
Po
(гПа)
Тmin
(С)
Tmax
(С)
R
(мм)
R24
(мм)
S
(см)
15 18.06 С 2 3500 м 9/9
[]
+18.0 +17.3 96 +19 +19 1007.4 1002.7
18 18.06 ЮЗ 1 4300 м ?/? +18.0 +17.0 94 +19 +19 1006.7 1002.0
21 18.06 З 1 9000 м 10/3 2000 м
[]
+20.0 +16.2 79 +24 +24 комфорт 1006.8 1002.1
00 19.06 З 3 20 км 4/0
[]
+24.7 +16.1 59 +28 +35 душно 1006.2 1001.6 +17.9 0.5
03 19.06 18 км н/о +22.9 +16.6 68 +28 +39 душно 1005.7 1001.1
06 19.06 ЮВ 2 19 км ясно +24.9 +16.0 58 +28 +43 жарко 1004.8 1000.2
09 19.06 ЮВ 1 20 км 3/0
[]
+23.7 +15.4 60 +27 +29 жарко 1004.6 1000.0
12 19.06 штиль 0 20 км ясно +20.9 +15.4 71 +24 +24 комфорт 1004.7 1000.0 +25.8 0.0
15 19.06 ЮЗ 1 14 км ясно +19.2 +15.4 79 +22 +22 комфорт 1005.2 1000.5
18 19.06 З 1 15 км ясно +19.8 +14.5 71 +23 +23 комфорт 1005.4 1000.7
21 19.06 ЮЗ 2 17 км ясно +19.4 +14.4 73 +22 +22 комфорт 1005.5 1000.8
00 20.06 В 3 12 км 6/0
[]
+20.3 +16.5 79 +24 +30 комфорт 1005.4 1000.7 +17.8 0.0
03 20.06 ЮВ 2 17 км 3/0
[]
+24.4 +16.3 61 +28 +45 душно 1005.0 1000.4
06 20.06 ЮВ 3 17 км 6/0
[]
+24.1 +15.5 59 +27 +36 жарко 1003.1 998.5
09 20.06 В 2 9000 м 8/0
[]
+20.6 +17.0 80 +25 +26 комфорт 1002.7 998.0
12 20.06 З 3 20 км 9/0
[]
+25.4 +15.4 54 +28 +28 жарко 1003.8 999.2 +26.2
15 20.06 штиль 0 20 км 8/6
[]
+23.3 +14.8 59 +27 +27 душно 1003.5 998.9
18 20.06 Ю 1 19 км 8/0
[]
+22.3 +13.0 56 +25 +25 комфорт 1004.3 999.7
21 20.06 З 1 14 км 8/8
[]
+19.8 +15.4 76 +23 +23 комфорт 1005.2 1000.5
00 21.06 СВ 5 17 км ясно +21.6 +17.3 77 +26 +32 душно 1005.3 1000.7 +19.6
03 21.06 СВ 14 19 км 4/3 1500 м
[]
+22.0 +16.7 72 +26 +26 душно 1005.3 1000.7
06 21.06 СВ 4 13 км ?/? +20.2 +17.5 84 +23 +24 комфорт 1005.8 1001.1
09 21.06 С 4 12 км 9// 200 м
[]
+17.1 +16.1 94 +17 +17 1007.4 1002.7
12 21.06 С 2 20 км ?/? +17.5 +13.4 77 +18 +18 1009.7 1005.0 +24.0 0.1
15 21.06 СВ 1 20 км 8/3 600 м
[]
+16.9 +13.2 79 +18 +18 1009.2 1004.5
18 21.06 С 1 20 км 9/0 2000 м
[]
+16.5 +12.8 79 +17 +17 1008.7 1003.9
21 21.06 20 км н/о +16.5 +12.8 79 +17 +18 1008.9 1004.1
00 22.06 СВ 9 20 км ясно +19.3 +13.9 71 +20 +21 1008.7 1004.0 +15.5 0.0
03 22.06 СВ 3 20 км 1/0
[]
+21.0 +15.3 70 +25 +41 комфорт 1008.7 1004.0
06 22.06 СВ 4 20 км ясно +20.7 +15.4 72 +24 +34 комфорт 1008.1 1003.4
09 22.06 СВ 9 20 км ясно +19.6 +13.9 70 +21 +21 комфорт 1008.0 1003.3
12 22.06 С 1 20 км 3/0
[]
+17.8 +12.4 71 +19 +19 1008.6 1003.9 +21.2
15 22.06 З 1 20 км 1/0
[]
+15.4 +11.3 77 +16 +16 1009.0 1004.2
18 22.06 З 1 20 км 4/4 300 м
[]
+14.9 +12.5 86 +15 +15 1008.9 1004.1
21 22.06 ЮЗ 1 19 км 1/1 1000 м
[]
+15.1 +13.8 92 +16 +16 1009.5 1004.7
00 23.06 СВ 4 20 км 3/3 600 м
[]
+19.4 +15.2 77 +21 +26 комфорт 1009.9 1005.2 +14.7
03 23.06 СВ 3 20 км 4/4 1500 м
[]
+20.2 +16.2 78 +23 +34 комфорт 1010.2 1005.5
06 23.06 СВ 3 20 км ясно +20.0 +15.4 75 +23 +35 комфорт 1009.6 1004.9
09 23.06 В 2 20 км ясно +18.9 +14.9 78 +21 +23 комфорт 1009.6 1004.9
12 23.06 штиль 0 20 км 1/0
[]
+17.3 +15.2 87 +17 +17 1010.6 1005.9 +20.7
15 23.06 СЗ 1 20 км 9/1 600 м
[]
+17.5 +15.4 87 +19 +19 1011.4 1006.7
18 23.06 20 км 8/0
[]
+16.8 +15.8 94 +17 +17 1011.1 1006.3 0.2
21 23.06 18 км н/о +16.2 +14.7 91 +17 +17 1012.6 1007.8
00 24.06 В 2 20 км ясно +20.6 +15.1 71 +24 +35 комфорт 1013.2 1008.5 +15.9 0.2
03 24.06 ЮВ 2 20 км 1/0
[]
+21.3 +15.8 71 +25 +44 комфорт 1013.5 1008.8
06 24.06 Ю 3 20 км 3/0
[]
+21.3 +16.0 72 +25 +35 комфорт 1013.4 1008.7
09 24.06 ЮВ 2 20 км ясно +19.7 +15.3 76 +22 +25 комфорт 1013.3 1008.6
12 24.06 штиль 0 20 км 3/0
[]
+18.4 +16.0 86 +19 +19 1014.2 1009.5 +22.4 0.0
15 24.06 З 2 20 км 3/0
[]
+16.7 +14.6 87 +17 +17 1014.9 1010.1
18 24.06 ЮЗ 1 20 км 6/0
[]
+16.1 +14.4 90 +17 +17 1014.6 1009.8
21 24.06 штиль 0 20 км 3/0
[]
+16.6 +14.5 87 +16 +17 1015.5 1010.7
00 25.06 В 3 20 км 3/0
[]
+19.8 +16.4 81 +22 +30 комфорт 1015.9 1011.2 +15.8 0.0
03 25.06 ЮВ 3 19 км 3/0
[]
+22.6 +17.7 74 +28 +42 душно 1015.3 1010.6
06 25.06 Ю 4 20 км 3/0
[]
+22.6 +17.5 73 +28 +36 душно 1014.1 1009.4
09 25.06 ЮВ 1 19 км 3/0
[]
+21.6 +17.1 76 +26 +28 душно 1012.8 1008.1

 

Местоположение метеостанции Донгхэ (Корея): широта 37.50 долгота 129.13 высота над уровнем моря 37 м.

В архиве по умолчанию представлена погода в Донгхэ за последнюю неделю. Архивные данные за месяц целиком и за предыдущие месяцы, начиная с января 2011 года, Вы можете получить, выбрав интересующий диапазон дат из раскрывающегося списка и нажав кнопку "Ввод!".


*Определитесь, кто Вы:
робот инопланетянин человек

Внимание! Время в таблицах - всемирное. Для получения местного времени необходимо прибавить поправку, которая равна 9 ч.

Смотрите также архив погоды в соседних городах и на ближайших метеорологических станциях:

Погода в Канныне (Корея) (34 км)
Погода на Перевале Daegwallyeong (Корея) (38 км)
Погода в Ульджине (Корея) (63 км)
Погода в Йонволе (Корея) (69 км)
Погода в Сокчхо (Корея) (97 км)
Погода в Вонджу (Корея) (106 км)
Погода в Андоне (Корея) (110 км)
Погода в Чхунчхоне (Корея) (131 км)
Погода в Чунчоне (Корея) (132 км)
Погода в Ичхоне (Корея) (148 км)

Пояснения к столбцам:

Ветер - указаны скорость ветра в м/с - средняя за 10 мин, порывы в срок и между сроками (в фигурных скобках) и направление, откуда дует ветер: С - северный, СВ - северо-восточный, В - восточный, ЮВ - юго-восточный, Ю - южный, ЮЗ - юго-западный, З - западный, СЗ - северо-западный.
Видимость - горизонтальная дальность видимости в метрах или километрах. При видимости от 1 до 10 км при отсутствии осадков обычно наблюдается дымка, при ухудшении видимости до 1 км и менее - туман. В сухую погоду видимость может ухудшаться дымом, пылью или мглою.
Явления - указаны атмосферные явления, наблюдавшиеся в срок или в последний час перед сроком; фигурными скобками обозначены явления, наблюдавшиеся между сроками (за 1-3 часа до срока); квадратными скобками обозначены град или гололедные отложения с указанием их диаметра в мм.
Облачность - указаны через наклонную черту общая и нижняя облачность в баллах и высота нижней границы облаков в метрах; квадратными скобками обозначены формы облаков: Ci - перистые, Cs - перисто-слоистые, Cc - перисто-кучевые, Ac - высококучевые, As - высокослоистые, Sc - слоисто-кучевые, Ns - слоисто-дождевые, Cu - кучевые, Cb - кучево-дождевые. Подробнее классификацию облаков см. в Атласе облаков (PDF).
T - Температура воздуха - температура, измеренная на высоте 2 м над землей.
Td - Температура точки росы - температура, при понижении до которой содержащийся в воздухе водяной пар достигнет насыщения.
f - Относительная влажность воздуха - влажноcть воздуха, измеренная на высоте 2 м над землей.
Te - Эффективная температура - температура, которую ощущает одетый по сезону человек в тени. Характеристика душности погоды. При расчете учитывается влияние влажности воздуха и скорости ветра на теплоощущения человека.
Tes - Эффективная температура на солнце - температура, которую ощущает человек, с поправкой на солнечный нагрев. Характеристика знойности погоды. Зависит от высоты солнца над горизонтом, облачности и скорости ветра. Ночью, в пасмурную погоду, а также при ветре 12 м/с и более поправка равна нулю.
P - Атмосферное давление - приведенное к уровню моря атмосферное давление.
Po - Атмосферное давление - измеренное на уровне метеостанции атмосферное давление.
Tmin - Минимальная температура - минимум температуры воздуха на высоте 2 м над землей.
Tmax - Максимальная температура - максимум температуры воздуха на высоте 2 м над землей.
R - Количество осадков - Количество выпавших осадков за период времени, мм. При наведении курсора мыши на число - период времени, за который выпало указанное количество осадков.
R24 - Количество осадков - Количество выпавших осадков за 24 часа, мм.
S - Снежный покров - Высота снежного покрова, см. При наведении курсора мыши на число - состояние снежного покрова и степень покрытия местности в баллах.